Wind_Speed
21 20 19 15 8 11 18 16 17 8 4 4 5 5 5 8 10 2 3 7 9 12 13 16 17 17 17 16 14 13 11 9 8 8 8 9 11 12 14 15 15 14 14 13 12 12 12 12 12
22 20 19 12 15 22 21 19 15 15 11 7 7 7 5 4 14 11 8 4 11 13 13 15 16 17 16 16 14 12 10 9 8 8 9 10 11 13 14 14 14 13 12 11 11 11 11 11 11
27 22 17 16 24 28 21 13 14 14 10 8 8 9 9 7 11 12 10 7 14 14 15 14 14 14 14 14 13 11 9 8 7 7 8 10 11 13 14 15 14 12 11 10 10 10 10 11 10
30 25 21 22 25 24 23 14 13 11 10 9 7 6 14 12 9 8 7 11 15 14 15 13 12 14 13 11 11 11 9 7 6 6 8 9 10 11 13 13 12 10 9 8 8 9 9 10 9
33 20 25 26 31 26 19 19 13 10 13 13 11 11 9 16 15 10 8 14 14 14 14 13 11 11 10 9 7 8 9 7 6 6 7 8 9 10 12 12 11 10 9 8 8 8 9 9 8
27 24 30 34 30 27 25 15 13 16 13 14 13 12 12 17 17 14 13 15 16 15 14 13 11 10 10 10 8 6 6 6 7 7 8 9 10 12 13 14 13 12 10 10 9 10 11 11 11
32 30 37 33 31 28 25 19 16 13 12 13 13 12 16 17 19 18 17 17 17 17 16 13 12 11 11 12 10 9 7 7 7 7 8 9 11 12 13 14 15 15 13 12 11 11 12 12 13
29 31 34 38 36 29 23 21 17 14 11 15 20 13 10 20 20 20 19 18 16 16 16 15 13 12 11 11 11 10 9 8 8 8 8 9 10 11 13 14 15 14 12 11 10 10 11 12 13
32 32 41 37 34 30 22 24 28 18 14 17 22 22 19 22 20 20 19 19 19 18 17 16 14 12 12 12 11 10 9 9 9 9 9 9 10 10 11 12 13 13 13 12 12 12 12 12 13
30 36 39 28 30 28 28 20 28 22 21 21 24 18 24 23 22 19 15 13 15 16 16 16 15 14 13 12 11 10 9 9 8 9 9 10 10 11 12 12 13 14 14 15 15 15 15 14 15
26 39 30 31 28 28 23 27 25 27 26 26 27 23 21 27 21 17 15 13 14 14 16 16 15 13 12 11 11 9 8 8 8 8 9 10 11 11 12 13 14 15 16 16 17 18 18 19 19
26 27 33 26 30 25 28 21 28 30 30 28 43 34 24 25 26 18 12 12 14 14 14 16 15 13 12 12 11 10 9 9 9 10 10 11 11 12 14 15 16 17 18 18 19 20 21 23 24
28 23 25 30 28 26 26 32 31 30 30 33 39 40 34 30 30 24 24 16 15 15 15 16 15 15 14 13 12 10 10 10 11 11 11 12 13 13 14 14 15 16 18 19 21 22 23 24 26
21 25 26 22 28 33 31 30 28 33 29 35 40 48 25 29 29 28 22 18 19 19 18 19 18 18 17 16 15 14 14 15 16 16 15 13 13 13 12 12 12 12 13 14 16 18 20 22 25
24 21 24 29 26 26 32 37 39 32 28 32 46 46 41 22 23 27 28 25 20 18 18 17 21 20 18 18 17 17 17 18 20 21 20 19 19 18 17 15 14 14 15 17 19 20 21 22 24
21 25 30 26 25 31 26 44 41 33 31 26 34 50 52 29 22 23 22 20 18 17 16 18 18 17 17 18 18 18 19 20 22 24 26 24 23 22 20 20 20 21 23 23 23 24 24 26 28
23 27 27 25 28 28 35 39 35 33 32 36 31 35 47 45 28 23 19 17 15 15 16 17 18 18 19 20 22 23 25 26 28 29 28 28 26 24 27 22 25 25 25 25 25 26 27 29 31
23 26 24 25 25 27 40 36 33 30 29 34 34 39 32 55 41 25 18 14 15 15 16 19 21 23 22 22 22 23 25 27 29 30 29 28 27 27 26 29 27 27 26 22 21 20 25 29 33
13 15 18 21 21 29 35 39 35 37 30 30 33 37 45 47 46 35 23 20 20 18 15 21 21 19 17 17 20 23 24 23 25 25 27 26 28 27 26 26 28 24 22 23 24 26 30 34 38
18 18 17 12 17 23 31 31 34 31 35 32 29 28 42 55 59 38 32 32 22 21 20 18 22 21 17 14 16 19 18 19 20 21 22 22 22 22 21 20 22 23 25 25 28 31 34 38 41
22 20 18 12 7 13 19 28 28 28 25 25 24 19 29 45 59 38 26 30 27 17 23 26 22 22 23 20 16 13 15 15 15 15 15 18 20 21 23 24 26 27 28 32 34 37 38 40 42
23 20 19 15 12 20 20 17 25 23 24 23 20 19 12 37 43 38 29 26 23 26 28 31 29 25 24 23 24 22 21 20 21 22 24 25 25 26 28 29 31 32 34 36 38 39 41 42 42
23 16 18 19 21 22 17 16 19 19 18 21 17 17 20 22 50 37 32 29 31 24 25 26 26 25 26 27 28 28 26 26 27 28 28 27 29 31 32 33 34 35 36 37 38 40 39 38 40
18 20 16 20 23 19 23 18 14 17 16 16 15 13 10 19 23 26 24 25 26 27 26 28 28 29 30 31 32 33 33 32 32 33 32 32 33 34 34 35 36 37 38 40 41 40 39 37 37
17 17 12 13 17 15 25 18 15 9 15 16 17 16 15 16 17 17 22 27 27 29 32 32 33 34 36 37 36 37 37 36 34 34 33 34 35 35 35 36 38 40 42 42 41 42 39 39 38
20 20 17 14 14 17 12 10 13 10 16 17 19 16 13 10 13 16 20 23 24 27 29 31 33 36 38 37 35 34 34 34 33 33 33 35 35 35 38 40 42 44 44 45 46 44 44 42 41
18 20 19 13 8 9 18 12 3 13 17 17 15 13 12 9 9 10 13 15 17 21 26 30 33 35 33 32 32 32 31 31 32 32 33 36 39 41 43 45 45 46 48 49 49 50 50 48 47
20 21 15 16 11 13 8 17 13 18 14 16 15 14 13 12 12 11 13 14 14 16 19 21 22 23 24 27 28 30 31 31 34 37 39 42 44 45 47 49 50 51 52 54 55 56 57 57 55
22 20 18 11 17 10 10 12 10 15 13 14 18 16 16 17 16 15 16 17 17 17 17 17 18 21 24 27 29 31 34 38 41 43 45 46 49 50 51 51 52 53 53 55 58 61 61 63 64
15 16 23 19 15 15 15 3 11 14 13 14 17 17 17 16 15 15 15 15 16 16 18 20 22 26 29 31 34 37 41 43 46 48 50 51 54 56 57 58 59 59 60 61 62 63 64 66 67
Wind_Direction
236 237 246 254 247 240 243 233 222 215 222 215 242 215 208 225 203 216 137 204 177 139 126 119 111 106 103 99 98 102 111 123 125 125 124 129 139 143 143 140 139 135 133 130 128 124 123 122 117
236 235 236 236 236 235 239 231 229 225 233 255 232 229 222 228 208 212 268 260 194 149 138 129 122 115 109 106 105 106 109 120 128 130 137 142 149 152 152 149 146 143 141 137 132 131 132 132 127
231 232 227 236 239 236 237 228 231 235 238 258 239 220 223 228 214 229 265 248 196 168 150 144 134 123 118 114 111 111 112 113 124 136 147 154 157 160 161 159 155 154 149 146 143 143 144 141 136
231 233 234 226 231 233 231 239 223 228 242 254 241 235 224 220 212 226 243 199 192 189 164 163 151 137 129 123 123 122 120 124 132 148 156 159 165 169 170 168 163 163 156 155 155 155 157 155 151
226 220 231 236 235 231 233 224 241 233 244 243 257 226 229 215 222 238 238 191 198 195 185 176 166 149 140 133 132 135 136 142 150 157 160 167 175 178 176 174 176 176 174 172 170 171 172 173 170
218 220 233 233 236 230 235 224 234 242 250 238 246 219 230 214 213 221 228 204 199 195 194 184 177 164 155 147 146 153 153 161 166 173 175 176 182 185 183 186 189 191 192 189 188 190 191 190 189
216 224 230 235 237 234 235 232 229 237 246 226 222 209 230 224 214 209 225 221 209 200 194 187 182 176 170 163 161 168 176 185 189 189 189 187 192 195 196 198 201 203 204 205 205 207 207 207 207
221 223 236 233 234 237 233 239 223 221 224 226 230 207 226 222 212 210 207 205 201 198 197 191 188 186 181 176 174 175 182 194 202 206 204 206 208 210 213 214 215 217 220 225 229 232 230 228 227
219 224 233 230 230 233 236 230 214 223 233 224 224 205 202 208 212 212 204 204 206 206 205 198 195 190 186 183 183 185 190 199 208 213 215 218 221 224 227 229 230 232 235 239 244 249 253 251 251
219 227 230 233 232 234 227 224 218 221 231 231 221 215 211 196 192 192 193 200 206 204 204 198 193 190 191 194 192 189 192 201 210 216 219 222 226 229 233 235 238 238 241 244 247 251 255 256 257
229 232 237 232 232 227 226 228 218 222 221 213 214 206 204 190 188 186 175 174 176 187 189 186 179 178 180 187 190 188 190 203 210 216 220 225 227 231 235 238 240 242 245 247 250 253 255 256 253
229 238 233 228 232 230 229 227 224 226 220 223 214 221 198 191 192 181 195 187 183 184 190 186 175 181 187 197 189 184 190 202 209 213 218 223 226 227 230 233 237 239 243 245 248 252 254 257 256
228 234 241 231 231 231 235 233 227 227 219 228 214 221 203 190 193 197 184 197 202 199 201 200 199 202 202 203 204 207 212 218 219 225 229 231 233 233 237 242 247 251 254 255 255 257 261 260 262
240 237 233 233 236 236 237 235 229 228 221 226 221 219 200 193 200 196 193 199 197 209 214 213 219 219 218 222 224 225 227 228 229 231 237 242 244 246 246 250 256 264 268 269 272 276 278 278 278
233 238 235 233 230 235 235 241 229 228 235 233 222 221 218 204 193 197 197 200 205 205 219 225 228 225 224 228 230 231 234 234 235 236 238 242 246 250 254 255 259 261 269 278 283 282 282 282 281
230 232 237 236 238 231 228 242 232 234 233 238 227 227 223 213 202 188 192 191 194 197 204 216 220 223 225 227 232 237 243 248 249 246 243 240 242 245 247 253 254 269 280 279 278 279 281 283 284
228 231 232 241 235 233 230 244 234 233 241 239 233 238 224 203 224 189 192 198 208 215 227 232 236 238 237 241 250 253 253 253 252 250 246 242 240 241 257 251 271 274 272 274 279 284 286 288 291
222 231 236 239 237 232 230 238 230 232 235 241 239 239 252 211 208 211 206 226 226 227 240 242 246 248 250 256 249 249 248 246 249 251 248 243 244 244 259 268 268 270 276 279 280 284 293 295 299
249 239 233 244 246 236 235 236 233 232 241 239 241 243 236 221 213 219 221 224 240 250 248 240 244 248 240 242 247 247 250 245 245 246 240 237 247 256 258 262 266 268 267 275 284 293 297 301 302
230 249 240 263 240 242 235 239 234 231 233 236 240 249 236 221 212 223 241 240 232 264 250 239 238 230 231 243 244 243 243 242 240 237 238 241 245 250 252 251 258 264 274 284 291 295 298 303 305
223 241 240 250 289 211 227 239 232 223 231 228 236 247 247 225 205 232 256 231 250 246 252 233 231 221 229 239 239 230 231 230 232 235 242 249 253 258 261 265 272 279 284 289 292 294 296 301 305
230 230 239 242 251 224 212 234 214 215 222 219 221 232 243 208 215 227 231 231 240 259 241 235 226 225 235 243 245 243 243 245 247 253 254 256 258 262 268 273 277 279 283 286 290 294 296 301 302
234 229 238 245 245 257 224 255 225 192 207 212 220 230 220 206 222 232 230 228 246 236 224 221 221 229 238 245 245 245 247 247 250 254 257 258 262 265 268 272 276 280 282 287 291 294 297 298 300
237 230 241 246 244 240 243 232 194 178 204 186 185 199 206 205 212 219 227 219 221 224 227 226 227 233 241 245 247 247 249 249 249 248 253 257 260 263 267 271 274 277 282 287 291 292 293 294 299
200 200 205 213 224 238 226 221 246 107 178 174 186 192 192 182 192 204 211 217 217 219 224 229 235 240 243 245 244 245 249 250 250 254 256 261 265 266 268 268 275 282 285 288 290 291 290 293 294
206 210 230 207 209 214 194 227 233 188 196 186 192 189 198 209 212 213 218 226 232 235 240 246 249 248 244 240 241 245 245 246 250 251 255 258 261 268 275 281 283 285 289 290 291 290 289 291 291
205 218 234 264 261 272 178 191 158 187 191 196 206 217 234 238 247 238 233 228 237 239 239 241 245 243 238 237 239 238 242 246 250 257 265 272 276 280 283 283 285 286 286 287 288 289 289 289 289
230 218 205 228 237 235 183 181 217 177 176 198 202 210 224 240 238 234 233 239 234 236 237 236 230 226 227 232 237 243 249 257 267 276 278 276 278 279 279 280 280 281 281 280 282 283 285 286 286
214 221 228 248 238 225 228 230 154 176 181 182 203 206 209 212 214 214 216 222 224 223 221 222 228 233 239 248 255 262 269 273 274 275 274 274 276 276 276 277 277 277 278 279 278 278 279 280 282
204 220 223 224 223 240 263 160 166 174 177 183 206 203 203 201 207 214 218 221 225 229 234 239 246 254 260 264 267 271 271 270 271 272 274 276 277 279 280 281 281 280 279 278 276 276 276 277 277
Height
3163 3164 3166 3169 3176 3170 3166 3167 3169 3170 3170 3169 3168 3170 3173 3172 3174 3174 3173 3174 3175 3174 3175 3175 3174 3174 3174 3175 3176 3178 3180 3182 3182 3183 3184 3186 3187 3189 3190 3191 3192 3193 3195 3196 3197 3198 3198 3199 3199
3160 3163 3165 3169 3169 3164 3162 3165 3167 3168 3168 3166 3167 3168 3169 3172 3169 3170 3172 3173 3175 3175 3176 3175 3175 3175 3176 3176 3177 3178 3181 3182 3183 3184 3186 3187 3188 3190 3191 3192 3193 3195 3196 3197 3198 3199 3200 3200 3201
3157 3159 3164 3165 3161 3159 3161 3161 3165 3165 3165 3166 3167 3166 3169 3170 3168 3169 3170 3171 3174 3175 3175 3176 3176 3176 3176 3177 3178 3179 3181 3182 3184 3185 3187 3188 3190 3191 3192 3193 3194 3195 3196 3197 3199 3200 3201 3201 3202
3153 3156 3159 3157 3154 3157 3160 3161 3162 3163 3165 3165 3164 3167 3165 3166 3167 3168 3169 3171 3173 3175 3174 3175 3176 3175 3176 3178 3179 3180 3182 3183 3185 3187 3187 3189 3191 3192 3193 3194 3195 3197 3198 3199 3199 3200 3201 3202 3203
3148 3151 3153 3151 3150 3155 3156 3159 3160 3161 3163 3164 3164 3165 3165 3163 3166 3167 3168 3170 3172 3173 3174 3175 3176 3176 3177 3178 3180 3181 3181 3183 3185 3187 3188 3189 3191 3193 3194 3195 3196 3197 3197 3198 3199 3200 3201 3202 3202
3144 3146 3146 3143 3147 3151 3153 3156 3157 3159 3160 3162 3162 3164 3165 3162 3163 3165 3167 3168 3170 3171 3173 3174 3175 3176 3176 3177 3179 3181 3182 3183 3184 3186 3188 3189 3191 3192 3193 3194 3195 3196 3197 3197 3197 3198 3199 3200 3200
3135 3140 3139 3141 3143 3146 3149 3149 3154 3157 3157 3160 3159 3162 3163 3161 3161 3163 3165 3167 3168 3169 3171 3172 3173 3175 3176 3176 3177 3179 3181 3183 3184 3185 3187 3188 3190 3191 3192 3193 3193 3194 3194 3195 3196 3197 3197 3198 3199
3131 3137 3136 3136 3139 3143 3148 3146 3152 3153 3153 3153 3154 3159 3163 3158 3160 3161 3163 3164 3166 3167 3168 3170 3171 3173 3174 3175 3176 3177 3179 3181 3183 3184 3185 3187 3188 3189 3191 3192 3193 3194 3195 3195 3196 3196 3197 3197 3198
3125 3129 3124 3131 3136 3140 3145 3144 3147 3147 3149 3149 3153 3153 3152 3155 3158 3160 3161 3162 3163 3164 3166 3167 3169 3171 3173 3174 3175 3176 3178 3180 3181 3183 3184 3185 3187 3188 3190 3191 3192 3193 3193 3194 3195 3195 3196 3196 3197
3120 3120 3122 3131 3134 3136 3140 3141 3144 3146 3146 3146 3148 3147 3150 3152 3154 3158 3159 3160 3161 3162 3163 3165 3167 3169 3171 3172 3173 3175 3176 3178 3180 3181 3182 3183 3184 3186 3187 3188 3189 3190 3190 3191 3192 3193 3193 3193 3194
3116 3113 3123 3126 3129 3131 3134 3136 3139 3141 3143 3140 3142 3144 3145 3147 3151 3155 3158 3159 3160 3162 3163 3164 3165 3167 3168 3170 3172 3173 3174 3177 3178 3179 3180 3181 3182 3183 3184 3185 3186 3187 3187 3188 3189 3189 3190 3190 3190
3110 3113 3117 3120 3123 3126 3128 3132 3133 3136 3141 3137 3140 3141 3141 3145 3147 3151 3157 3159 3159 3161 3162 3163 3164 3166 3167 3169 3170 3171 3173 3175 3176 3177 3178 3179 3180 3180 3181 3182 3182 3183 3184 3184 3185 3185 3186 3186 3186
3105 3109 3111 3115 3118 3121 3124 3124 3127 3129 3136 3134 3137 3139 3137 3139 3142 3146 3145 3155 3157 3159 3161 3162 3163 3164 3166 3166 3168 3169 3171 3173 3174 3175 3176 3177 3177 3178 3178 3179 3180 3180 3181 3181 3181 3181 3182 3182 3182
3103 3104 3107 3109 3112 3115 3117 3118 3122 3124 3128 3129 3131 3135 3132 3133 3138 3141 3146 3148 3152 3156 3158 3160 3161 3162 3163 3165 3166 3167 3169 3170 3171 3172 3173 3174 3175 3176 3176 3177 3177 3178 3178 3178 3178 3179 3179 3179 3178
3099 3101 3101 3103 3106 3108 3113 3110 3109 3118 3121 3122 3124 3129 3127 3129 3131 3135 3138 3143 3146 3150 3154 3157 3158 3159 3161 3162 3163 3164 3166 3167 3168 3169 3169 3170 3171 3172 3173 3173 3174 3174 3174 3174 3175 3175 3174 3174 3174
3095 3096 3094 3098 3101 3103 3107 3096 3108 3113 3114 3116 3117 3124 3126 3126 3130 3130 3135 3139 3142 3145 3149 3152 3154 3156 3158 3159 3160 3161 3162 3163 3164 3164 3164 3165 3166 3168 3168 3169 3169 3169 3170 3170 3170 3170 3169 3168 3168
3090 3087 3089 3092 3094 3097 3098 3097 3102 3107 3108 3109 3113 3117 3118 3123 3126 3127 3131 3134 3137 3140 3144 3147 3149 3152 3153 3154 3155 3156 3157 3157 3158 3158 3159 3160 3161 3162 3164 3163 3164 3165 3164 3164 3164 3164 3163 3163 3162
3084 3085 3083 3085 3088 3090 3089 3089 3096 3097 3100 3103 3107 3111 3112 3116 3119 3123 3125 3129 3134 3136 3139 3142 3144 3147 3147 3148 3149 3149 3150 3150 3151 3152 3153 3155 3156 3157 3158 3158 3159 3159 3159 3158 3158 3158 3157 3155 3153
3080 3081 3079 3080 3082 3083 3082 3084 3087 3091 3094 3096 3097 3100 3102 3107 3112 3119 3123 3123 3129 3132 3135 3137 3140 3142 3143 3143 3144 3144 3144 3145 3146 3147 3148 3149 3150 3151 3152 3152 3153 3154 3153 3153 3152 3151 3150 3149 3146
3080 3079 3076 3075 3076 3076 3078 3079 3081 3083 3085 3087 3088 3089 3087 3094 3105 3109 3112 3120 3125 3127 3130 3133 3136 3138 3139 3139 3139 3139 3140 3140 3140 3141 3142 3144 3145 3145 3146 3147 3147 3148 3147 3147 3145 3144 3142 3140 3138
3074 3076 3074 3073 3073 3073 3075 3073 3074 3076 3078 3080 3083 3081 3077 3079 3096 3105 3108 3112 3114 3118 3123 3125 3126 3129 3132 3134 3134 3135 3136 3136 3136 3137 3138 3140 3140 3140 3140 3141 3141 3140 3140 3137 3137 3136 3134 3133 3130
3069 3072 3073 3072 3074 3068 3070 3060 3065 3069 3072 3075 3077 3077 3076 3078 3091 3099 3106 3108 3110 3114 3116 3119 3122 3125 3126 3128 3129 3130 3132 3131 3132 3133 3132 3133 3134 3135 3135 3134 3134 3133 3132 3131 3129 3127 3126 3122 3120
3065 3068 3070 3071 3070 3067 3065 3062 3051 3062 3067 3070 3073 3073 3075 3079 3086 3090 3095 3099 3105 3108 3111 3114 3117 3120 3120 3121 3123 3125 3125 3124 3125 3126 3126 3127 3128 3128 3127 3127 3126 3125 3123 3122 3121 3117 3115 3112 3110
3062 3065 3066 3068 3067 3063 3060 3060 3052 3055 3062 3067 3070 3068 3071 3074 3080 3086 3090 3094 3099 3104 3107 3111 3112 3112 3113 3114 3115 3116 3117 3117 3117 3117 3118 3118 3119 3119 3119 3119 3118 3117 3115 3113 3111 3108 3105 3104 3101
3058 3060 3058 3060 3058 3054 3054 3059 3053 3054 3059 3066 3066 3068 3072 3074 3078 3082 3087 3091 3094 3096 3101 3103 3104 3105 3106 3107 3108 3108 3109 3110 3110 3110 3110 3112 3113 3113 3113 3111 3110 3108 3106 3103 3101 3098 3098 3094 3092
3052 3053 3046 3045 3043 3044 3053 3053 3052 3056 3059 3063 3065 3068 3072 3074 3078 3080 3083 3086 3089 3091 3093 3095 3095 3096 3097 3098 3099 3100 3102 3102 3104 3104 3105 3106 3105 3104 3103 3101 3099 3097 3095 3092 3090 3087 3086 3085 3082
3046 3048 3048 3046 3044 3040 3042 3052 3055 3054 3059 3061 3063 3065 3068 3071 3074 3075 3077 3080 3081 3084 3086 3086 3088 3089 3090 3092 3093 3095 3097 3098 3098 3098 3098 3097 3095 3093 3091 3089 3087 3085 3083 3080 3077 3075 3074 3072 3071
3042 3044 3047 3045 3042 3040 3040 3045 3047 3054 3058 3060 3062 3063 3066 3069 3072 3072 3074 3075 3077 3078 3078 3080 3081 3083 3085 3088 3090 3091 3092 3091 3090 3088 3087 3087 3084 3081 3080 3077 3076 3073 3070 3068 3065 3062 3061 3058 3059
3040 3040 3040 3041 3040 3039 3039 3044 3046 3053 3057 3058 3059 3061 3063 3066 3068 3069 3070 3071 3073 3074 3074 3077 3078 3080 3082 3085 3085 3084 3083 3081 3079 3078 3076 3074 3070 3069 3067 3064 3061 3059 3056 3055 3052 3049 3048 3045 3042
3032 3035 3035 3038 3039 3041 3039 3043 3048 3050 3053 3055 3056 3059 3061 3062 3065 3067 3067 3068 3070 3071 3074 3076 3077 3076 3076 3076 3076 3074 3074 3071 3069 3066 3063 3060 3057 3054 3051 3048 3044 3041 3039 3038 3035 3033 3031 3029 3027